This is the latest recevied weather packets stored in our database for station/object KF6YUA. If no packets are shown the sender has not sent any weather packets the latest 10 day(s).
| Time | Temp. | Humidity | Pressure | Rain* | Wind** | Luminosity | Snow |
|---|---|---|---|---|---|---|---|
| 1778168367 | 11.11° C | 99% | 1021.4 hPa | 0 mm | - | 57 W/m² | - |
| 1778168064 | 11.11° C | 99% | 1021.5 hPa | 0 mm | - | 59 W/m² | - |
| 1778167760 | 11.11° C | 99% | 1021.5 hPa | 0 mm | - | 57 W/m² | - |
| 1778167456 | 11.11° C | 99% | 1021.7 hPa | 0 mm | - | 53 W/m² | - |
| 1778167152 | 11.11° C | 99% | 1021.7 hPa | 0 mm | - | 51 W/m² | - |
| 1778166849 | 11.11° C | 99% | 1021.7 hPa | 0 mm | - | 46 W/m² | - |
| 1778166546 | 11.11° C | 99% | 1021.7 hPa | 0 mm | - | 43 W/m² | - |
| 1778166243 | 10.56° C | 99% | 1021.7 hPa | 0 mm | - | 38 W/m² | - |
| 1778165939 | 10.56° C | 99% | 1021.6 hPa | 0 mm | - | 35 W/m² | - |
| 1778165635 | 10.56° C | 99% | 1021.5 hPa | 0 mm | - | 34 W/m² | - |
| 1778165332 | 10.56° C | 99% | 1021.6 hPa | 0 mm | - | 32 W/m² | - |
| 1778165029 | 10.56° C | 99% | 1021.6 hPa | 0 mm | - | 32 W/m² | - |
| 1778164726 | 11.11° C | 99% | 1021.5 hPa | 0 mm | - | 28 W/m² | - |
| 1778164423 | 11.11° C | 99% | 1021.5 hPa | 0 mm | - | 26 W/m² | - |
| 1778164119 | 10.56° C | 99% | 1021.5 hPa | 0 mm | - | 24 W/m² | - |
| 1778163816 | 10.56° C | 99% | 1021.5 hPa | 0 mm | - | 24 W/m² | - |
| 1778163512 | 10.56° C | 99% | 1021.4 hPa | 0 mm | - | 17 W/m² | - |
| 1778163209 | 10.56° C | 99% | 1021.3 hPa | 0 mm | - | 15 W/m² | - |
| 1778162906 | 10.56° C | 99% | 1021.3 hPa | 0 mm | - | 11 W/m² | - |
| 1778162602 | 10.56° C | 99% | 1021.4 hPa | 0.51 mm | - | 10 W/m² | - |
| 1778162301 | 10.56° C | 99% | 1021.1 hPa | 0.51 mm | - | 9 W/m² | - |
| 1778161997 | 10.56° C | 99% | 1021.1 hPa | 0 mm | - | 7 W/m² | - |
| 1778161694 | 10.56° C | 99% | 1020.9 hPa | 0 mm | - | 5 W/m² | - |
| 1778161390 | 10.56° C | 99% | 1021.1 hPa | 0 mm | - | 2 W/m² | - |
| 1778161086 | 10.56° C | 99% | 1021 hPa | 0 mm | - | 1 W/m² | - |
* Rain latest hour (hover to see other rain measurements)
** Current wind speed in m/s (hover to see current wind gust speed)